Wind_Speed
6 6 6 5 5 5 4 4 4 4 3 3 3 3 4 4 4 4 4 5 5 5 6 6 7 7 8 9 9 9 9 9 9 9 10 10 10 10 10 10 10 11 12
5 5 5 5 5 4 4 4 4 4 3 3 2 3 3 3 3 4 4 4 5 5 6 6 6 6 7 8 9 9 9 9 9 9 9 10 10 10 11 11 11 12 12
5 5 5 5 5 4 4 4 4 3 3 2 2 2 2 3 3 4 4 4 5 5 5 5 5 5 5 5 7 8 8 8 9 9 9 10 11 11 12 12 13 13 13
5 5 4 5 5 5 4 4 4 3 3 2 2 2 2 2 3 3 4 4 5 5 5 5 5 5 5 5 6 7 8 9 9 10 10 10 11 11 12 13 13 13 14
4 4 4 4 4 4 4 3 3 3 3 3 2 1 1 2 2 2 3 3 4 4 4 4 5 5 6 6 7 8 9 9 10 10 10 11 12 12 13 14 14 14 14
4 4 4 4 4 4 3 3 3 3 3 3 2 1 1 2 2 2 2 3 3 3 4 4 5 5 6 6 7 8 8 9 10 10 11 12 12 13 14 14 15 15 14
4 4 3 3 3 3 3 3 3 4 4 3 2 2 2 2 2 2 3 3 3 3 4 4 4 6 7 7 7 8 8 9 10 11 12 12 12 13 14 14 14 15 15
3 3 3 3 3 3 3 3 3 3 3 3 3 2 2 2 2 3 4 4 4 5 5 4 5 6 6 7 7 8 8 9 10 11 12 12 13 14 14 15 15 16 16
2 3 2 2 2 2 3 3 3 3 3 3 3 2 2 2 3 3 4 5 5 6 6 6 7 7 8 8 8 9 10 10 11 12 12 13 13 14 14 15 16 17 17
2 2 2 2 2 2 3 3 3 3 4 4 3 3 3 3 3 4 5 5 5 6 7 7 8 8 9 9 10 11 11 11 12 12 13 13 13 14 15 16 17 18 18
2 2 2 1 2 2 3 3 4 4 4 4 4 4 4 4 4 5 5 5 6 7 7 7 7 9 10 10 11 11 12 12 12 13 14 14 15 15 16 17 18 18 19
2 2 2 2 3 3 3 4 5 5 5 5 6 6 6 6 6 6 6 6 7 7 7 7 8 9 9 11 11 12 12 13 14 14 15 16 17 17 17 18 18 19 19
3 3 3 4 4 4 4 5 5 6 6 6 7 7 7 8 8 8 8 8 8 8 8 9 9 9 10 11 12 13 13 14 14 15 16 17 18 18 19 19 19 20 20
4 4 4 5 5 5 6 6 6 7 7 7 7 8 8 8 8 9 9 9 9 10 10 11 11 12 12 12 13 14 14 15 15 16 17 18 18 19 20 21 21 21 21
6 6 6 6 6 6 7 7 7 7 7 7 7 8 8 8 9 9 9 10 10 11 11 12 13 13 14 14 15 15 16 16 17 17 18 19 19 20 21 21 21 22 22
7 7 7 7 7 7 7 7 7 7 7 8 8 8 9 9 9 10 10 11 11 12 12 13 14 14 15 15 16 16 17 17 18 19 20 20 21 21 22 22 22 23 23
8 8 8 8 7 7 8 8 8 8 9 9 9 9 9 10 10 11 12 12 13 13 14 14 15 15 16 17 18 18 19 19 19 20 21 22 22 23 24 24 24 24 24
8 8 8 8 8 8 9 9 9 9 10 10 10 10 10 11 12 12 13 14 14 14 15 16 16 17 18 19 20 20 21 22 22 23 23 23 24 25 25 25 26 26 26
9 9 8 8 9 10 10 11 11 11 11 11 11 12 12 12 13 14 14 15 15 16 17 18 18 19 20 20 21 22 23 24 24 25 25 26 26 26 27 27 27 27 28
10 10 11 11 11 11 12 12 12 13 13 13 13 13 14 14 15 15 16 16 17 18 19 19 20 20 21 22 23 24 24 25 26 27 27 28 28 28 29 29 29 30 30
11 12 12 13 13 13 13 13 13 13 13 14 14 15 15 16 16 16 17 18 18 19 20 20 21 22 23 24 24 25 26 27 28 29 29 29 30 30 30 30 31 31 32
12 13 13 12 12 13 13 14 14 14 14 15 15 15 16 16 17 17 18 19 19 20 21 22 22 23 24 25 26 27 28 28 29 30 30 31 31 32 32 32 33 33 33
13 13 13 12 12 13 14 14 14 15 15 15 15 16 16 17 17 18 19 20 21 22 23 24 24 25 26 27 28 29 29 30 31 31 32 32 32 32 33 33 33 34 34
13 14 13 13 13 14 14 15 15 15 15 16 17 18 18 18 19 20 20 22 23 24 25 25 26 27 28 29 30 30 31 31 31 32 33 33 33 33 34 35 35 36 37
14 14 14 14 14 15 15 16 16 16 17 17 18 19 19 20 21 22 23 24 24 25 26 27 28 29 29 30 31 32 32 32 32 33 34 35 35 35 36 37 37 38 38
14 14 14 14 15 15 16 16 17 17 18 19 19 20 21 22 23 23 24 24 25 26 27 28 28 29 30 31 32 33 33 33 34 34 35 36 36 36 36 37 38 39 40
Wind_Direction
318 323 325 325 324 324 325 325 322 317 306 297 288 272 259 253 239 246 247 244 244 247 248 252 253 253 253 251 252 249 253 254 253 252 253 254 257 260 263 267 263 260 261
320 325 336 333 330 329 331 335 335 334 327 307 285 267 251 246 236 241 252 257 255 256 259 258 257 262 265 252 246 248 251 257 254 253 256 256 258 261 266 265 262 263 264
321 328 340 340 336 335 338 343 341 342 339 314 288 271 251 251 247 245 251 256 256 259 258 257 261 273 278 261 250 250 254 260 261 262 263 264 261 262 266 265 263 266 266
327 331 341 349 351 352 352 356 356 357 357 345 301 272 257 254 253 250 253 255 257 263 262 258 260 267 277 272 263 259 262 268 269 270 271 271 268 268 266 267 266 269 268
324 330 343 350 360 2 5 12 13 7 0 352 331 310 275 251 252 255 259 260 263 268 256 256 263 270 281 281 274 270 269 270 271 273 275 273 273 273 270 269 266 269 269
326 335 343 351 358 3 9 18 16 9 1 358 351 337 296 271 257 259 270 271 270 270 265 267 270 276 282 288 284 278 276 271 270 272 276 276 276 274 272 270 268 268 269
329 337 345 353 357 3 10 15 10 10 17 14 359 351 334 288 265 271 276 283 286 282 277 275 277 280 281 287 285 283 281 273 273 275 278 278 277 276 274 272 271 271 272
331 343 348 353 360 8 12 6 1 10 16 12 3 3 6 336 298 282 278 281 283 282 279 278 282 287 286 286 286 287 286 279 278 280 282 282 280 278 276 276 276 275 274
333 348 348 358 4 2 360 354 357 358 4 7 1 357 335 312 305 301 295 286 285 277 273 277 280 282 283 283 288 294 291 287 283 283 284 285 283 281 279 280 281 279 279
324 346 354 350 350 353 352 353 357 354 352 354 350 342 331 320 310 304 302 297 290 285 284 284 283 283 284 284 288 290 291 293 290 286 286 287 285 284 283 282 283 283 282
304 327 335 331 331 328 332 334 335 338 333 328 328 327 324 321 315 308 303 299 297 293 289 288 288 287 286 288 290 291 291 293 293 290 286 287 288 287 287 287 288 287 284
277 292 303 308 313 315 318 323 321 321 320 315 313 310 310 310 309 306 304 299 295 294 293 294 296 296 293 292 293 294 295 297 295 291 289 288 289 289 289 290 290 288 287
272 284 287 287 299 309 309 313 316 313 312 310 307 305 305 305 304 303 301 300 297 293 292 294 297 297 297 297 297 298 297 296 295 294 292 289 289 290 291 291 291 290 289
270 282 287 290 295 302 304 304 309 309 308 308 306 306 305 304 301 299 298 297 297 295 295 295 298 298 297 298 298 297 298 297 296 294 293 294 293 292 292 292 291 290 288
266 275 282 285 294 298 301 304 307 306 305 306 306 308 308 306 302 300 298 297 297 296 296 297 298 299 298 300 300 299 296 296 296 296 296 296 296 296 295 295 294 291 289
267 270 274 278 287 294 300 301 304 307 306 305 305 304 304 303 302 300 299 298 297 297 295 295 297 298 300 301 302 302 301 299 299 298 298 297 296 296 296 296 295 294 292
265 270 276 279 283 288 292 298 299 301 302 302 303 303 300 299 299 299 299 298 297 297 297 296 296 298 298 300 301 301 301 300 300 300 300 298 297 296 295 296 296 294 293
271 275 280 281 281 284 287 292 296 297 299 299 300 300 300 298 298 298 298 298 298 299 298 298 297 298 297 299 298 298 299 298 298 298 298 298 297 296 296 295 295 295 293
273 278 280 285 284 283 284 289 293 295 296 297 299 299 300 300 299 298 297 298 298 298 298 298 297 297 296 296 297 297 297 297 297 297 297 296 296 295 295 294 294 294 293
272 278 281 283 286 288 286 288 291 290 293 293 295 297 299 300 299 299 299 299 299 299 298 298 298 297 297 297 297 298 298 298 298 298 297 296 295 294 294 293 293 292 292
275 279 283 284 287 289 288 289 290 290 293 295 296 298 300 301 300 299 299 299 299 299 299 299 299 299 299 299 298 298 299 299 298 298 298 297 296 295 294 294 293 292 292
278 281 285 287 289 290 290 290 290 291 293 295 296 299 301 302 302 301 300 300 301 301 300 300 300 301 300 300 299 299 299 298 298 297 297 297 296 295 294 294 293 293 292
279 282 283 284 287 288 290 291 291 292 294 295 297 299 301 302 302 302 302 302 303 303 303 303 303 303 303 302 301 300 300 299 299 298 297 297 296 296 295 294 294 293 293
279 281 280 283 286 288 291 292 292 292 293 295 297 298 299 300 302 304 303 303 304 305 304 304 303 304 304 304 303 302 301 301 300 299 299 298 297 296 295 295 294 294 293
280 280 280 281 284 288 291 292 291 292 295 297 298 298 300 301 302 303 304 304 305 305 306 305 305 305 305 305 305 304 303 302 301 300 299 299 298 297 297 296 295 294 294
279 281 282 282 283 287 290 291 292 293 295 296 298 299 300 301 302 304 305 306 306 306 306 306 306 306 306 305 305 304 303 302 301 301 300 299 299 298 297 297 297 295 294
Height
5867 5867 5866 5865 5865 5863 5863 5862 5862 5862 5861 5861 5861 5862 5862 5863 5864 5864 5865 5866 5866 5867 5868 5869 5869 5870 5870 5871 5872 5872 5873 5874 5875 5876 5876 5877 5878 5878 5879 5879 5880 5880 5881
5867 5866 5865 5865 5864 5863 5862 5862 5861 5861 5861 5861 5861 5861 5862 5862 5863 5864 5865 5865 5866 5866 5867 5868 5868 5868 5868 5868 5869 5871 5872 5873 5873 5874 5875 5875 5876 5877 5877 5877 5878 5879 5879
5866 5865 5865 5864 5863 5862 5862 5861 5861 5860 5860 5860 5860 5861 5861 5862 5862 5863 5864 5865 5865 5866 5866 5867 5867 5867 5866 5866 5867 5869 5870 5871 5872 5873 5873 5874 5874 5874 5875 5875 5876 5876 5877
5865 5865 5864 5863 5862 5862 5861 5861 5860 5860 5860 5860 5860 5860 5861 5861 5862 5863 5864 5864 5865 5865 5866 5866 5867 5867 5867 5866 5867 5868 5869 5870 5871 5871 5871 5872 5872 5872 5873 5873 5873 5874 5874
5864 5864 5863 5863 5862 5861 5861 5861 5861 5860 5860 5860 5860 5860 5860 5861 5862 5863 5863 5864 5864 5865 5865 5866 5866 5866 5866 5866 5867 5867 5868 5868 5869 5869 5869 5869 5870 5870 5870 5870 5871 5871 5871
5864 5863 5863 5862 5862 5861 5861 5861 5861 5860 5860 5860 5860 5860 5860 5861 5862 5862 5863 5863 5864 5864 5865 5865 5865 5866 5866 5866 5866 5866 5866 5866 5867 5867 5867 5867 5867 5867 5867 5868 5868 5868 5868
5863 5863 5862 5862 5861 5861 5861 5861 5861 5860 5860 5860 5860 5860 5860 5861 5861 5862 5862 5863 5863 5863 5864 5864 5864 5864 5865 5865 5865 5864 5864 5865 5865 5865 5865 5865 5865 5865 5864 5864 5864 5864 5864
5863 5863 5862 5862 5861 5861 5861 5861 5861 5860 5860 5860 5860 5860 5861 5861 5861 5861 5861 5862 5862 5862 5862 5863 5863 5863 5863 5863 5863 5863 5863 5863 5863 5863 5862 5862 5862 5861 5861 5861 5861 5861 5860
5863 5862 5862 5862 5861 5861 5861 5861 5861 5861 5860 5860 5860 5860 5860 5861 5860 5861 5860 5860 5861 5861 5861 5861 5861 5862 5862 5862 5862 5861 5861 5861 5860 5860 5860 5859 5859 5858 5858 5857 5857 5856 5856
5862 5862 5862 5862 5861 5861 5861 5861 5861 5861 5860 5860 5860 5860 5860 5860 5860 5860 5860 5860 5860 5860 5860 5860 5860 5860 5860 5860 5860 5859 5859 5858 5858 5857 5857 5856 5856 5855 5854 5854 5853 5852 5851
5862 5862 5862 5862 5861 5861 5861 5861 5860 5860 5860 5860 5860 5860 5860 5859 5859 5859 5859 5859 5859 5859 5859 5858 5858 5858 5858 5858 5857 5857 5856 5856 5855 5855 5854 5853 5852 5852 5851 5850 5849 5848 5847
5862 5862 5861 5861 5861 5861 5860 5860 5860 5860 5859 5859 5859 5859 5859 5859 5858 5858 5858 5858 5858 5858 5857 5857 5857 5856 5856 5855 5855 5854 5854 5853 5852 5851 5851 5850 5849 5848 5847 5846 5845 5843 5842
5861 5861 5861 5861 5860 5860 5860 5859 5859 5859 5859 5858 5858 5858 5858 5858 5857 5857 5857 5856 5856 5856 5856 5855 5855 5854 5854 5853 5852 5852 5851 5850 5849 5848 5847 5846 5845 5844 5843 5842 5840 5838 5837
5860 5860 5860 5860 5859 5859 5859 5858 5858 5858 5857 5857 5857 5856 5856 5856 5855 5855 5855 5855 5854 5854 5854 5853 5852 5852 5851 5850 5849 5849 5848 5847 5846 5845 5843 5842 5841 5840 5838 5837 5835 5834 5832
5858 5859 5859 5859 5858 5858 5858 5857 5857 5856 5856 5856 5855 5855 5854 5854 5853 5853 5853 5853 5853 5852 5852 5850 5850 5849 5848 5847 5846 5845 5844 5843 5842 5841 5839 5838 5837 5835 5833 5832 5830 5828 5827
5857 5857 5857 5857 5857 5857 5856 5856 5855 5855 5855 5854 5853 5853 5852 5852 5851 5851 5850 5850 5850 5849 5848 5848 5847 5846 5844 5844 5842 5841 5840 5839 5838 5836 5835 5833 5832 5830 5828 5827 5825 5823 5821
5855 5855 5855 5855 5855 5855 5855 5854 5854 5853 5853 5852 5852 5851 5850 5850 5849 5849 5848 5847 5846 5846 5845 5844 5843 5842 5841 5840 5839 5837 5836 5835 5833 5832 5830 5828 5826 5825 5823 5821 5819 5817 5815
5853 5853 5853 5853 5853 5853 5853 5852 5852 5851 5851 5850 5849 5849 5848 5847 5847 5846 5845 5844 5843 5842 5841 5840 5839 5838 5837 5835 5834 5833 5831 5830 5828 5827 5825 5823 5821 5819 5817 5815 5813 5811 5809
5850 5851 5851 5851 5851 5850 5850 5850 5849 5849 5848 5847 5847 5846 5845 5844 5843 5843 5842 5840 5839 5838 5837 5836 5835 5833 5832 5830 5829 5827 5826 5824 5822 5820 5818 5816 5814 5812 5810 5808 5806 5804 5802
5848 5848 5848 5848 5848 5847 5847 5847 5846 5846 5845 5844 5844 5843 5842 5841 5840 5839 5838 5837 5835 5834 5833 5831 5830 5828 5827 5825 5823 5821 5820 5818 5816 5813 5811 5809 5807 5805 5803 5800 5798 5796 5794
5845 5845 5845 5845 5845 5844 5844 5843 5843 5842 5842 5841 5840 5839 5838 5837 5836 5835 5834 5832 5831 5830 5828 5826 5825 5823 5821 5819 5817 5815 5813 5811 5809 5806 5804 5802 5799 5797 5794 5792 5790 5787 5785
5842 5842 5842 5841 5841 5841 5840 5840 5839 5839 5838 5838 5837 5836 5835 5833 5832 5831 5829 5828 5826 5824 5823 5821 5819 5817 5815 5813 5810 5808 5806 5804 5802 5799 5796 5794 5791 5788 5785 5783 5781 5778 5776
5838 5838 5838 5838 5838 5837 5837 5836 5836 5835 5835 5834 5833 5832 5831 5829 5828 5826 5824 5823 5821 5819 5817 5815 5813 5811 5808 5806 5803 5801 5798 5796 5793 5790 5788 5785 5782 5780 5777 5774 5771 5769 5766
5835 5835 5834 5834 5834 5834 5833 5832 5832 5831 5831 5830 5829 5828 5826 5825 5823 5821 5820 5818 5816 5813 5811 5809 5806 5804 5801 5798 5796 5793 5790 5787 5785 5781 5778 5776 5773 5771 5768 5765 5762 5759 5756
5831 5831 5830 5830 5830 5830 5829 5828 5828 5827 5826 5825 5824 5823 5821 5820 5818 5816 5814 5812 5810 5807 5805 5802 5799 5796 5793 5790 5787 5784 5781 5778 5776 5773 5769 5767 5764 5761 5758 5754 5751 5748 5744
5827 5827 5826 5826 5826 5826 5825 5824 5823 5823 5822 5821 5819 5818 5816 5814 5812 5810 5808 5806 5803 5801 5798 5795 5792 5789 5785 5782 5778 5775 5772 5769 5766 5763 5760 5756 5753 5750 5748 5744 5739 5736 5732